Time,TemperatureF,DewpointF,PressureIn,WindDirection,WindDirectionDegrees,WindSpeedMPH,WindSpeedGustMPH,Humidity,HourlyPrecipIn,Conditions,Clouds,dailyrainin,SoftwareType,DateUTC
2013-05-01 00:04:00,62.2,34.2,29.76,WSW,242,2.0,7.6,35,0.00,,,-99.99,FreeWX-Wi 1.02,2013-05-01 07:04:00,
2013-05-01 00:09:00,61.9,34.0,29.76,WSW,242,2.0,7.6,35,0.00,,,-99.99,FreeWX-Wi 1.02,2013-05-01 07:09:00,
2013-05-01 00:14:00,61.7,33.8,29.76,WSW,242,3.0,8.1,35,0.00,,,-99.99,FreeWX-Wi 1.02,2013-05-01 07:14:00,
2013-05-01 00:19:00,61.7,34.5,29.76,WSW,244,4.0,10.5,36,0.00,,,-99.99,FreeWX-Wi 1.02,2013-05-01 07:19:00,
2013-05-01 00:24:00,61.5,34.3,29.76,WSW,247,5.0,10.5,36,0.00,,,-99.99,FreeWX-Wi 1.02,2013-05-01 07:24:00,
2013-05-01 00:29:00,61.3,34.2,29.76,WSW,252,5.0,8.7,36,0.00,,,-99.99,FreeWX-Wi 1.02,2013-05-01 07:29:00,
2013-05-01 00:34:00,61.2,34.0,29.76,WSW,255,5.0,11.0,36,0.00,,,-99.99,FreeWX-Wi 1.02,2013-05-01 07:34:00,
2013-05-01 00:39:00,61.0,33.8,29.76,WSW,256,6.0,8.7,36,0.00,,,-99.99,FreeWX-Wi 1.02,2013-05-01 07:39:00,
2013-05-01 00:44:00,61.0,33.8,29.76,West,260,5.0,5.4,36,0.00,,,-99.99,FreeWX-Wi 1.02,2013-05-01 07:44:00,
2013-05-01 00:49:00,61.2,34.0,29.76,West,263,4.0,4.0,36,0.00,,,-99.99,FreeWX-Wi 1.02,2013-05-01 07:49:00,
2013-05-01 00:54:00,61.0,33.8,29.76,West,265,3.0,4.5,36,0.00,,,-99.99,FreeWX-Wi 1.02,2013-05-01 07:54:00,
2013-05-01 00:59:00,61.0,33.8,29.76,West,264,3.0,6.7,36,0.00,,,-99.99,FreeWX-Wi 1.02,2013-05-01 07:59:00,
2013-05-01 01:04:00,60.8,33.6,29.76,West,264,3.0,8.7,36,0.00,,,-99.99,FreeWX-Wi 1.02,2013-05-01 08:04:00,
2013-05-01 01:09:00,60.8,33.6,29.76,West,263,3.0,7.2,36,0.00,,,-99.99,FreeWX-Wi 1.02,2013-05-01 08:09:00,
2013-05-01 01:14:00,60.8,33.6,29.76,West,260,3.0,6.3,36,0.00,,,-99.99,FreeWX-Wi 1.02,2013-05-01 08:14:00,
2013-05-01 01:19:00,60.8,33.6,29.76,WSW,258,4.0,8.1,36,0.00,,,-99.99,FreeWX-Wi 1.02,2013-05-01 08:19:00,
2013-05-01 01:24:00,60.8,33.6,29.76,WSW,256,4.0,8.1,36,0.00,,,-99.99,FreeWX-Wi 1.02,2013-05-01 08:24:00,
2013-05-01 01:29:00,60.6,34.2,29.76,WSW,257,4.0,5.8,37,0.00,,,-99.99,FreeWX-Wi 1.02,2013-05-01 08:29:00,
2013-05-01 01:34:00,60.6,34.2,29.76,WSW,258,4.0,8.3,37,0.00,,,-99.99,FreeWX-Wi 1.02,2013-05-01 08:34:00,
2013-05-01 01:39:00,60.6,34.2,29.76,West,259,3.0,4.9,37,0.00,,,-99.99,FreeWX-Wi 1.02,2013-05-01 08:39:00,
2013-05-01 01:44:00,60.6,34.2,29.76,West,262,3.0,4.0,37,0.00,,,-99.99,FreeWX-Wi 1.02,2013-05-01 08:44:00,
2013-05-01 01:49:00,60.6,33.4,29.76,West,264,2.0,0.0,36,0.00,,,-99.99,FreeWX-Wi 1.02,2013-05-01 08:49:00,
2013-05-01 01:54:00,60.4,33.4,29.76,West,266,2.0,6.3,36,0.00,,,-99.99,FreeWX-Wi 1.02,2013-05-01 08:54:00,
2013-05-01 01:59:00,60.6,33.4,29.76,West,267,1.0,2.7,36,0.00,,,-99.99,FreeWX-Wi 1.02,2013-05-01 08:59:00,
2013-05-01 02:04:00,60.6,32.9,29.76,North,-999,0.0,2.7,35,0.00,,,-99.99,FreeWX-Wi 1.02,2013-05-01 09:04:00,
2013-05-01 02:09:00,60.8,32.9,29.76,North,-999,0.0,2.7,35,0.00,,,-99.99,FreeWX-Wi 1.02,2013-05-01 09:09:00,
2013-05-01 02:14:00,61.3,33.4,29.76,West,270,1.0,15.0,35,0.00,,,-99.99,FreeWX-Wi 1.02,2013-05-01 09:14:00,
2013-05-01 02:19:00,61.5,32.9,29.76,West,274,2.0,6.3,34,0.00,,,-99.99,FreeWX-Wi 1.02,2013-05-01 09:19:00,
2013-05-01 02:24:00,61.3,32.7,29.76,West,275,2.0,6.3,34,0.00,,,-99.99,FreeWX-Wi 1.02,2013-05-01 09:24:00,
2013-05-01 02:29:00,61.3,32.7,29.76,West,279,2.0,5.4,34,0.00,,,-99.99,FreeWX-Wi 1.02,2013-05-01 09:29:00,
2013-05-01 02:34:00,61.2,32.5,29.76,WNW,282,2.0,3.6,34,0.00,,,-99.99,FreeWX-Wi 1.02,2013-05-01 09:34:00,
2013-05-01 02:39:00,61.7,32.4,29.76,WNW,284,3.0,10.5,33,0.00,,,-99.99,FreeWX-Wi 1.02,2013-05-01 09:39:00,
2013-05-01 02:44:00,61.5,32.9,29.76,West,279,3.0,10.5,34,0.00,,,-99.99,FreeWX-Wi 1.02,2013-05-01 09:44:00,
2013-05-01 02:49:00,61.3,32.7,29.76,West,274,4.0,12.8,34,0.00,,,-99.99,FreeWX-Wi 1.02,2013-05-01 09:49:00,
2013-05-01 02:54:00,61.3,32.7,29.76,West,268,4.0,10.1,34,0.00,,,-99.99,FreeWX-Wi 1.02,2013-05-01 09:54:00,
2013-05-01 02:59:00,61.2,32.5,29.76,West,262,6.0,12.3,34,0.00,,,-99.99,FreeWX-Wi 1.02,2013-05-01 09:59:00,
2013-05-01 03:04:00,61.0,32.4,29.79,WSW,256,7.0,11.0,34,0.00,,,-99.99,FreeWX-Wi 1.02,2013-05-01 10:04:00,
2013-05-01 03:09:00,60.8,32.9,29.79,WSW,255,7.0,13.2,35,0.00,,,-99.99,FreeWX-Wi 1.02,2013-05-01 10:09:00,
2013-05-01 03:14:00,60.8,33.6,29.79,WSW,257,8.0,14.5,36,0.00,,,-99.99,FreeWX-Wi 1.02,2013-05-01 10:14:00,
2013-05-01 03:19:00,60.6,34.2,29.79,West,260,8.0,15.4,37,0.00,,,-99.99,FreeWX-Wi 1.02,2013-05-01 10:19:00,
2013-05-01 03:24:00,60.4,34.0,29.79,West,263,8.0,17.0,37,0.00,,,-99.99,FreeWX-Wi 1.02,2013-05-01 10:24:00,
2013-05-01 03:29:00,60.4,33.4,29.79,West,267,8.0,8.7,36,0.00,,,-99.99,FreeWX-Wi 1.02,2013-05-01 10:29:00,
2013-05-01 03:34:00,60.4,33.4,29.76,West,274,7.0,7.0,36,0.00,,,-99.99,FreeWX-Wi 1.02,2013-05-01 10:34:00,
2013-05-01 03:39:00,60.6,32.2,29.76,WNW,284,6.0,6.0,34,0.00,,,-99.99,FreeWX-Wi 1.02,2013-05-01 10:39:00,
2013-05-01 03:44:00,60.4,31.3,29.76,WNW,288,5.0,5.8,33,0.00,,,-99.99,FreeWX-Wi 1.02,2013-05-01 10:44:00,
2013-05-01 03:49:00,60.6,31.3,29.79,WNW,287,4.0,10.1,33,0.00,,,-99.99,FreeWX-Wi 1.02,2013-05-01 10:49:00,
2013-05-01 03:54:00,60.6,31.3,29.79,WNW,287,4.0,11.0,33,0.00,,,-99.99,FreeWX-Wi 1.02,2013-05-01 10:54:00,
2013-05-01 03:59:00,60.6,32.2,29.79,WNW,288,4.0,8.7,34,0.00,,,-99.99,FreeWX-Wi 1.02,2013-05-01 10:59:00,
2013-05-01 04:04:00,60.4,32.0,29.79,WNW,284,4.0,6.3,34,0.00,,,-99.99,FreeWX-Wi 1.02,2013-05-01 11:04:00,
2013-05-01 04:09:00,60.3,32.5,29.79,West,278,4.0,5.4,35,0.00,,,-99.99,FreeWX-Wi 1.02,2013-05-01 11:09:00,
2013-05-01 04:14:00,60.3,32.5,29.79,West,276,4.0,6.3,35,0.00,,,-99.99,FreeWX-Wi 1.02,2013-05-01 11:14:00,
2013-05-01 04:19:00,60.1,32.4,29.79,West,277,4.0,8.3,35,0.00,,,-99.99,FreeWX-Wi 1.02,2013-05-01 11:19:00,
2013-05-01 04:24:00,60.1,32.4,29.79,West,279,3.0,3.6,35,0.00,,,-99.99,FreeWX-Wi 1.02,2013-05-01 11:24:00,
2013-05-01 04:29:00,60.1,32.4,29.79,WNW,283,2.0,6.3,35,0.00,,,-99.99,FreeWX-Wi 1.02,2013-05-01 11:29:00,
2013-05-01 04:34:00,59.7,32.0,29.82,WNW,284,2.0,5.8,35,0.00,,,-99.99,FreeWX-Wi 1.02,2013-05-01 11:34:00,
2013-05-01 04:39:00,59.5,31.8,29.82,WNW,284,2.0,4.0,35,0.00,,,-99.99,FreeWX-Wi 1.02,2013-05-01 11:39:00,
2013-05-01 04:44:00,59.4,31.6,29.82,WNW,284,1.0,0.0,35,0.00,,,-99.99,FreeWX-Wi 1.02,2013-05-01 11:44:00,
2013-05-01 04:49:00,59.2,31.5,29.82,WNW,286,1.0,0.0,35,0.00,,,-99.99,FreeWX-Wi 1.02,2013-05-01 11:49:00,
2013-05-01 04:54:00,58.6,31.1,29.82,WNW,285,1.0,3.1,35,0.00,,,-99.99,FreeWX-Wi 1.02,2013-05-01 11:54:00,
2013-05-01 04:59:00,58.3,30.7,29.82,North,-999,0.0,0.0,35,0.00,,,-99.99,FreeWX-Wi 1.02,2013-05-01 11:59:00,
2013-05-01 05:04:00,58.5,31.6,29.82,North,-999,0.0,5.4,36,0.00,,,-99.99,FreeWX-Wi 1.02,2013-05-01 12:04:00,
2013-05-01 05:09:00,58.3,32.2,29.82,North,-999,0.0,3.6,37,0.00,,,-99.99,FreeWX-Wi 1.02,2013-05-01 12:09:00,
2013-05-01 05:14:00,57.9,31.8,29.82,North,-999,0.0,4.0,37,0.00,,,-99.99,FreeWX-Wi 1.02,2013-05-01 12:14:00,
2013-05-01 05:19:00,58.3,32.7,29.82,NW,304,1.0,6.3,38,0.00,,,-99.99,FreeWX-Wi 1.02,2013-05-01 12:19:00,
2013-05-01 05:24:00,58.6,32.4,29.82,NW,320,1.0,5.4,37,0.00,,,-99.99,FreeWX-Wi 1.02,2013-05-01 12:24:00,
2013-05-01 05:29:00,58.6,31.8,29.82,NNW,341,2.0,4.0,36,0.00,,,-99.99,FreeWX-Wi 1.02,2013-05-01 12:29:00,
2013-05-01 05:34:00,58.5,31.6,29.82,North,0,1.0,3.1,36,0.00,,,-99.99,FreeWX-Wi 1.02,2013-05-01 12:34:00,
2013-05-01 05:39:00,58.1,32.0,29.82,NNE,16,1.0,2.7,37,0.00,,,-99.99,FreeWX-Wi 1.02,2013-05-01 12:39:00,
2013-05-01 05:44:00,57.9,31.8,29.82,NNE,29,1.0,3.6,37,0.00,,,-99.99,FreeWX-Wi 1.02,2013-05-01 12:44:00,
2013-05-01 05:49:00,57.6,31.5,29.85,NNE,32,1.0,0.0,37,0.00,,,-99.99,FreeWX-Wi 1.02,2013-05-01 12:49:00,
2013-05-01 05:54:00,57.4,32.0,29.85,North,-999,0.0,0.0,38,0.00,,,-99.99,FreeWX-Wi 1.02,2013-05-01 12:54:00,
2013-05-01 05:59:00,57.2,31.8,29.85,North,-999,0.0,2.7,38,0.00,,,-99.99,FreeWX-Wi 1.02,2013-05-01 12:59:00,
2013-05-01 06:04:00,57.2,31.8,29.85,North,-999,0.0,2.2,38,0.00,,,-99.99,FreeWX-Wi 1.02,2013-05-01 13:04:00,
2013-05-01 06:09:00,57.4,32.7,29.85,North,-999,0.0,3.6,39,0.00,,,-99.99,FreeWX-Wi 1.02,2013-05-01 13:09:00,
2013-05-01 06:14:00,57.7,32.4,29.85,North,-999,0.0,5.8,38,0.00,,,-99.99,FreeWX-Wi 1.02,2013-05-01 13:14:00,
2013-05-01 06:19:00,57.9,31.8,29.85,NNE,30,1.0,4.9,37,0.00,,,-99.99,FreeWX-Wi 1.02,2013-05-01 13:19:00,
2013-05-01 06:24:00,58.3,31.5,29.85,NNE,24,1.0,4.0,36,0.00,,,-99.99,FreeWX-Wi 1.02,2013-05-01 13:24:00,
2013-05-01 06:29:00,58.3,31.5,29.85,NNE,17,1.0,2.7,36,0.00,,,-99.99,FreeWX-Wi 1.02,2013-05-01 13:29:00,
2013-05-01 06:34:00,58.5,31.6,29.88,North,11,1.0,0.0,36,0.00,,,-99.99,FreeWX-Wi 1.02,2013-05-01 13:34:00,
2013-05-01 06:39:00,58.6,31.8,29.88,North,6,1.0,4.9,36,0.00,,,-99.99,FreeWX-Wi 1.02,2013-05-01 13:39:00,
2013-05-01 06:44:00,59.4,31.6,29.88,North,1,1.0,4.0,35,0.00,,,-99.99,FreeWX-Wi 1.02,2013-05-01 13:44:00,
2013-05-01 06:49:00,59.9,31.5,29.88,North,1,1.0,3.6,34,0.00,,,-99.99,FreeWX-Wi 1.02,2013-05-01 13:49:00,
2013-05-01 06:54:00,60.6,30.6,29.88,North,3,1.0,3.1,32,0.00,,,-99.99,FreeWX-Wi 1.02,2013-05-01 13:54:00,
2013-05-01 06:59:00,61.5,28.9,29.88,North,-999,0.0,3.1,29,0.00,,,-99.99,FreeWX-Wi 1.02,2013-05-01 13:59:00,
2013-05-01 07:04:00,62.2,27.0,29.88,North,359,1.0,5.8,26,0.00,,,-99.99,FreeWX-Wi 1.02,2013-05-01 14:04:00,
2013-05-01 07:09:00,62.6,26.2,29.88,NNW,344,1.0,3.6,25,0.00,,,-99.99,FreeWX-Wi 1.02,2013-05-01 14:09:00,
2013-05-01 07:14:00,63.5,27.1,29.88,NW,324,2.0,8.1,25,0.00,,,-99.99,FreeWX-Wi 1.02,2013-05-01 14:14:00,
2013-05-01 07:19:00,64.2,26.6,29.91,WNW,296,2.0,6.3,24,0.00,,,-99.99,FreeWX-Wi 1.02,2013-05-01 14:19:00,
2013-05-01 07:24:00,64.9,27.3,29.91,West,272,2.0,6.3,24,0.00,,,-99.99,FreeWX-Wi 1.02,2013-05-01 14:24:00,
2013-05-01 07:29:00,65.8,27.0,29.91,West,266,2.0,4.5,23,0.00,,,-99.99,FreeWX-Wi 1.02,2013-05-01 14:29:00,
2013-05-01 07:34:00,66.4,27.5,29.91,West,263,2.0,4.9,23,0.00,,,-99.99,FreeWX-Wi 1.02,2013-05-01 14:34:00,
2013-05-01 07:39:00,66.9,27.9,29.91,West,262,3.0,6.3,23,0.00,,,-99.99,FreeWX-Wi 1.02,2013-05-01 14:39:00,
2013-05-01 07:44:00,67.6,27.5,29.91,West,262,2.0,7.6,22,0.00,,,-99.99,FreeWX-Wi 1.02,2013-05-01 14:44:00,
2013-05-01 07:49:00,68.4,25.7,29.91,West,263,2.0,6.3,20,0.00,,,-99.99,FreeWX-Wi 1.02,2013-05-01 14:49:00,
2013-05-01 07:54:00,68.9,26.2,29.91,WSW,256,2.0,5.4,20,0.00,,,-99.99,FreeWX-Wi 1.02,2013-05-01 14:54:00,
2013-05-01 07:59:00,69.4,26.6,29.91,WSW,245,3.0,6.3,20,0.00,,,-99.99,FreeWX-Wi 1.02,2013-05-01 14:59:00,
2013-05-01 08:04:00,70.3,26.1,29.91,WSW,242,3.0,4.9,19,0.00,,,-99.99,FreeWX-Wi 1.02,2013-05-01 15:04:00,
2013-05-01 08:09:00,71.1,26.8,29.91,WSW,240,3.0,6.3,19,0.00,,,-99.99,FreeWX-Wi 1.02,2013-05-01 15:09:00,
2013-05-01 08:14:00,71.8,27.3,29.91,WSW,240,3.0,8.3,19,0.00,,,-99.99,FreeWX-Wi 1.02,2013-05-01 15:14:00,
2013-05-01 08:19:00,72.7,23.9,29.91,WSW,244,4.0,10.5,16,0.00,,,-99.99,FreeWX-Wi 1.02,2013-05-01 15:19:00,
2013-05-01 08:24:00,73.9,25.0,29.91,WSW,247,4.0,8.7,16,0.00,,,-99.99,FreeWX-Wi 1.02,2013-05-01 15:24:00,
2013-05-01 08:29:00,74.8,25.7,29.91,WSW,242,4.0,4.0,16,0.00,,,-99.99,FreeWX-Wi 1.02,2013-05-01 15:29:00,
2013-05-01 08:34:00,76.3,25.2,29.94,SW,232,4.0,7.6,15,0.00,,,-99.99,FreeWX-Wi 1.02,2013-05-01 15:34:00,
2013-05-01 08:39:00,77.5,26.2,29.94,SW,226,4.0,8.1,15,0.00,,,-99.99,FreeWX-Wi 1.02,2013-05-01 15:39:00,
2013-05-01 08:44:00,78.1,26.6,29.94,SW,222,4.0,7.6,15,0.00,,,-99.99,FreeWX-Wi 1.02,2013-05-01 15:44:00,
2013-05-01 08:49:00,79.5,27.9,29.94,SSW,211,3.0,8.7,15,0.00,,,-99.99,FreeWX-Wi 1.02,2013-05-01 15:49:00,
2013-05-01 08:54:00,80.8,27.1,29.94,SSW,211,3.0,5.8,14,0.00,,,-99.99,FreeWX-Wi 1.02,2013-05-01 15:54:00,
2013-05-01 08:59:00,81.9,28.0,29.94,SSW,204,4.0,8.3,14,0.00,,,-99.99,FreeWX-Wi 1.02,2013-05-01 15:59:00,
2013-05-01 09:04:00,82.6,28.6,29.91,SSW,195,4.0,10.5,14,0.00,,,-99.99,FreeWX-Wi 1.02,2013-05-01 16:04:00,
2013-05-01 09:09:00,82.9,28.8,29.91,South,180,4.0,8.3,14,0.00,,,-99.99,FreeWX-Wi 1.02,2013-05-01 16:09:00,
2013-05-01 09:14:00,83.8,29.5,29.91,SSE,151,3.0,7.6,14,0.00,,,-99.99,FreeWX-Wi 1.02,2013-05-01 16:14:00,
2013-05-01 09:19:00,84.0,29.7,29.94,SSE,151,3.0,6.3,14,0.00,,,-99.99,FreeWX-Wi 1.02,2013-05-01 16:19:00,
2013-05-01 09:24:00,84.6,28.2,29.94,SE,133,3.0,8.3,13,0.00,,,-99.99,FreeWX-Wi 1.02,2013-05-01 16:24:00,
2013-05-01 09:29:00,84.9,28.6,29.94,SE,136,3.0,10.5,13,0.00,,,-99.99,FreeWX-Wi 1.02,2013-05-01 16:29:00,
2013-05-01 09:34:00,85.1,28.8,29.94,ESE,111,4.0,16.8,13,0.00,,,-99.99,FreeWX-Wi 1.02,2013-05-01 16:34:00,
2013-05-01 09:39:00,84.0,29.7,29.94,East,91,6.0,19.2,14,0.00,,,-99.99,FreeWX-Wi 1.02,2013-05-01 16:39:00,
2013-05-01 09:44:00,84.7,28.4,29.94,ENE,63,7.0,15.9,13,0.00,,,-99.99,FreeWX-Wi 1.02,2013-05-01 16:44:00,
2013-05-01 09:49:00,84.9,28.6,29.94,NE,48,8.0,15.4,13,0.00,,,-99.99,FreeWX-Wi 1.02,2013-05-01 16:49:00,
2013-05-01 09:54:00,85.6,29.1,29.94,NE,38,8.0,16.3,13,0.00,,,-99.99,FreeWX-Wi 1.02,2013-05-01 16:54:00,
2013-05-01 09:59:00,85.8,29.3,29.94,NE,36,9.0,11.9,13,0.00,,,-99.99,FreeWX-Wi 1.02,2013-05-01 16:59:00,
2013-05-01 10:04:00,86.0,29.5,29.97,NNE,33,9.0,12.8,13,0.00,,,-99.99,FreeWX-Wi 1.02,2013-05-01 17:04:00,
2013-05-01 10:09:00,86.4,29.7,29.97,NNE,33,9.0,15.0,13,0.00,,,-99.99,FreeWX-Wi 1.02,2013-05-01 17:09:00,
2013-05-01 10:14:00,86.9,30.2,29.97,NNE,33,8.0,10.5,13,0.00,,,-99.99,FreeWX-Wi 1.02,2013-05-01 17:14:00,
2013-05-01 10:19:00,86.5,29.8,29.97,NNE,30,8.0,17.0,13,0.00,,,-99.99,FreeWX-Wi 1.02,2013-05-01 17:19:00,
2013-05-01 10:24:00,87.1,30.2,29.97,NNE,27,8.0,12.8,13,0.00,,,-99.99,FreeWX-Wi 1.02,2013-05-01 17:24:00,
2013-05-01 10:29:00,86.5,29.8,29.97,NNE,28,9.0,20.6,13,0.00,,,-99.99,FreeWX-Wi 1.02,2013-05-01 17:29:00,
2013-05-01 10:34:00,87.4,30.6,29.97,NNE,28,10.0,14.1,13,0.00,,,-99.99,FreeWX-Wi 1.02,2013-05-01 17:34:00,
2013-05-01 10:39:00,87.4,30.6,29.97,NNE,29,10.0,15.9,13,0.00,,,-99.99,FreeWX-Wi 1.02,2013-05-01 17:39:00,
2013-05-01 10:44:00,87.8,30.7,29.97,NNE,27,10.0,12.8,13,0.00,,,-99.99,FreeWX-Wi 1.02,2013-05-01 17:44:00,
2013-05-01 10:49:00,87.8,30.7,29.97,NNE,27,10.0,12.8,13,0.00,,,-99.99,FreeWX-Wi 1.02,2013-05-01 17:49:00,
2013-05-01 10:54:00,88.7,31.5,29.97,NNE,29,10.0,13.2,13,0.00,,,-99.99,FreeWX-Wi 1.02,2013-05-01 17:54:00,
2013-05-01 10:59:00,88.0,30.9,29.97,NNE,27,9.0,18.3,13,0.00,,,-99.99,FreeWX-Wi 1.02,2013-05-01 17:59:00,
2013-05-01 11:04:00,88.2,31.1,29.97,NNE,25,10.0,15.9,13,0.00,,,-99.99,FreeWX-Wi 1.02,2013-05-01 18:04:00,
2013-05-01 11:09:00,87.6,30.7,29.97,NNE,24,10.0,21.0,13,0.00,,,-99.99,FreeWX-Wi 1.02,2013-05-01 18:09:00,
2013-05-01 11:14:00,88.7,31.5,29.97,NNE,25,10.0,17.9,13,0.00,,,-99.99,FreeWX-Wi 1.02,2013-05-01 18:14:00,
2013-05-01 11:19:00,88.3,31.3,29.97,NNE,23,10.0,13.2,13,0.00,,,-99.99,FreeWX-Wi 1.02,2013-05-01 18:19:00,
2013-05-01 11:24:00,89.2,32.0,29.97,NNE,22,10.0,15.4,13,0.00,,,-99.99,FreeWX-Wi 1.02,2013-05-01 18:24:00,
2013-05-01 11:29:00,90.7,31.1,29.97,NNE,27,10.0,11.0,12,0.00,,,-99.99,FreeWX-Wi 1.02,2013-05-01 18:29:00,
2013-05-01 11:34:00,90.1,30.7,30.00,NNE,31,10.0,16.8,12,0.00,,,-99.99,FreeWX-Wi 1.02,2013-05-01 18:34:00,
2013-05-01 11:39:00,91.2,31.5,30.00,NE,34,9.0,11.0,12,0.00,,,-99.99,FreeWX-Wi 1.02,2013-05-01 18:39:00,
2013-05-01 11:44:00,90.1,30.7,30.00,NNE,32,9.0,13.2,12,0.00,,,-99.99,FreeWX-Wi 1.02,2013-05-01 18:44:00,
2013-05-01 11:49:00,90.5,30.9,30.00,NNE,33,8.0,13.2,12,0.00,,,-99.99,FreeWX-Wi 1.02,2013-05-01 18:49:00,
2013-05-01 11:54:00,90.1,30.7,30.00,NNE,30,9.0,15.9,12,0.00,,,-99.99,FreeWX-Wi 1.02,2013-05-01 18:54:00,
2013-05-01 11:59:00,91.6,31.8,30.00,NNE,29,8.0,10.1,12,0.00,,,-99.99,FreeWX-Wi 1.02,2013-05-01 18:59:00,
2013-05-01 12:04:00,90.5,30.9,30.00,NNE,25,8.0,15.4,12,0.00,,,-99.99,FreeWX-Wi 1.02,2013-05-01 19:04:00,
2013-05-01 12:09:00,91.4,31.6,30.00,NNE,24,9.0,17.0,12,0.00,,,-99.99,FreeWX-Wi 1.02,2013-05-01 19:09:00,
2013-05-01 12:14:00,91.0,31.3,30.00,NNE,28,10.0,22.4,12,0.00,,,-99.99,FreeWX-Wi 1.02,2013-05-01 19:14:00,
2013-05-01 12:19:00,90.9,31.3,30.00,NNE,28,10.0,14.5,12,0.00,,,-99.99,FreeWX-Wi 1.02,2013-05-01 19:19:00,
2013-05-01 12:24:00,91.8,31.8,30.00,NNE,30,10.0,13.6,12,0.00,,,-99.99,FreeWX-Wi 1.02,2013-05-01 19:24:00,
2013-05-01 12:29:00,91.4,31.6,30.00,NNE,27,10.0,16.3,12,0.00,,,-99.99,FreeWX-Wi 1.02,2013-05-01 19:29:00,
2013-05-01 12:34:00,90.9,31.3,30.00,NNE,26,10.0,12.8,12,0.00,,,-99.99,FreeWX-Wi 1.02,2013-05-01 19:34:00,
2013-05-01 12:39:00,92.1,32.2,30.00,NNE,22,9.0,13.2,12,0.00,,,-99.99,FreeWX-Wi 1.02,2013-05-01 19:39:00,
2013-05-01 12:44:00,93.0,32.9,30.00,NNE,25,9.0,15.0,12,0.00,,,-99.99,FreeWX-Wi 1.02,2013-05-01 19:44:00,
2013-05-01 12:49:00,94.3,37.8,30.00,NNE,31,9.0,15.4,14,0.00,,,-99.99,FreeWX-Wi 1.02,2013-05-01 19:49:00,
2013-05-01 12:54:00,93.4,30.9,30.00,NNE,32,10.0,17.4,11,0.00,,,-99.99,FreeWX-Wi 1.02,2013-05-01 19:54:00,
2013-05-01 12:59:00,93.4,30.9,30.00,NE,36,9.0,17.9,11,0.00,,,-99.99,FreeWX-Wi 1.02,2013-05-01 19:59:00,
2013-05-01 13:04:00,93.6,31.1,30.00,NE,41,10.0,18.8,11,0.00,,,-99.99,FreeWX-Wi 1.02,2013-05-01 20:04:00,
2013-05-01 13:09:00,93.0,32.9,30.00,NE,44,11.0,17.0,12,0.00,,,-99.99,FreeWX-Wi 1.02,2013-05-01 20:09:00,
2013-05-01 13:14:00,93.0,32.9,30.00,NE,44,11.0,13.6,12,0.00,,,-99.99,FreeWX-Wi 1.02,2013-05-01 20:14:00,
2013-05-01 13:19:00,92.8,32.7,30.00,NE,40,11.0,17.4,12,0.00,,,-99.99,FreeWX-Wi 1.02,2013-05-01 20:19:00,
2013-05-01 13:24:00,92.7,32.5,30.00,NE,40,10.0,15.0,12,0.00,,,-99.99,FreeWX-Wi 1.02,2013-05-01 20:24:00,
2013-05-01 13:29:00,93.4,30.9,30.00,NE,41,10.0,15.4,11,0.00,,,-99.99,FreeWX-Wi 1.02,2013-05-01 20:29:00,
2013-05-01 13:34:00,94.3,37.8,30.00,NE,42,10.0,15.4,14,0.00,,,-99.99,FreeWX-Wi 1.02,2013-05-01 20:34:00,
2013-05-01 13:39:00,94.3,37.8,30.00,NE,40,10.0,15.9,14,0.00,,,-99.99,FreeWX-Wi 1.02,2013-05-01 20:39:00,
2013-05-01 13:44:00,93.9,31.5,30.00,NE,41,10.0,17.4,11,0.00,,,-99.99,FreeWX-Wi 1.02,2013-05-01 20:44:00,
2013-05-01 13:49:00,94.6,37.9,30.00,NE,45,10.0,15.4,14,0.00,,,-99.99,FreeWX-Wi 1.02,2013-05-01 20:49:00,
2013-05-01 13:54:00,94.5,37.9,30.00,NE,45,10.0,16.3,14,0.00,,,-99.99,FreeWX-Wi 1.02,2013-05-01 20:54:00,
2013-05-01 13:59:00,93.6,37.2,30.00,NE,42,10.0,15.4,14,0.00,,,-99.99,FreeWX-Wi 1.02,2013-05-01 20:59:00,
2013-05-01 14:04:00,94.6,37.9,30.00,NE,40,10.0,13.2,14,0.00,,,-99.99,FreeWX-Wi 1.02,2013-05-01 21:04:00,
2013-05-01 14:09:00,95.4,38.7,30.00,NE,40,9.0,15.4,14,0.00,,,-99.99,FreeWX-Wi 1.02,2013-05-01 21:09:00,
2013-05-01 14:14:00,95.2,38.5,30.00,NE,39,9.0,14.5,14,0.00,,,-99.99,FreeWX-Wi 1.02,2013-05-01 21:14:00,
2013-05-01 14:19:00,95.4,38.7,30.00,NE,37,9.0,15.0,14,0.00,,,-99.99,FreeWX-Wi 1.02,2013-05-01 21:19:00,
2013-05-01 14:24:00,96.1,39.2,30.00,NE,39,8.0,14.5,14,0.00,,,-99.99,FreeWX-Wi 1.02,2013-05-01 21:24:00,
2013-05-01 14:29:00,94.5,37.9,30.00,NE,39,9.0,17.0,14,0.00,,,-99.99,FreeWX-Wi 1.02,2013-05-01 21:29:00,
2013-05-01 14:34:00,94.8,38.1,30.00,NE,40,9.0,12.3,14,0.00,,,-99.99,FreeWX-Wi 1.02,2013-05-01 21:34:00,
2013-05-01 14:39:00,95.4,38.7,30.00,NE,41,8.0,17.4,14,0.00,,,-99.99,FreeWX-Wi 1.02,2013-05-01 21:39:00,
2013-05-01 14:44:00,93.7,37.2,30.00,NE,36,9.0,15.4,14,0.00,,,-99.99,FreeWX-Wi 1.02,2013-05-01 21:44:00,
2013-05-01 14:49:00,92.8,32.7,30.00,NNE,33,9.0,16.8,12,0.00,,,-99.99,FreeWX-Wi 1.02,2013-05-01 21:49:00,
2013-05-01 14:55:00,93.6,37.2,30.00,NNE,29,10.0,15.9,14,0.00,,,-99.99,FreeWX-Wi 1.02,2013-05-01 21:55:00,
2013-05-01 15:00:00,95.4,38.7,30.00,NE,35,9.0,9.0,14,0.00,,,-99.99,FreeWX-Wi 1.02,2013-05-01 22:00:00,
2013-05-01 15:05:00,94.5,37.9,30.00,NNE,32,9.0,13.2,14,0.00,,,-99.99,FreeWX-Wi 1.02,2013-05-01 22:05:00,
2013-05-01 15:10:00,93.9,31.5,30.00,NNE,29,9.0,13.2,11,0.00,,,-99.99,FreeWX-Wi 1.02,2013-05-01 22:10:00,
2013-05-01 15:15:00,94.6,37.9,30.00,NNE,33,8.0,13.2,14,0.00,,,-99.99,FreeWX-Wi 1.02,2013-05-01 22:15:00,
2013-05-01 15:20:00,93.9,37.4,30.00,NNE,32,8.0,14.5,14,0.00,,,-99.99,FreeWX-Wi 1.02,2013-05-01 22:20:00,
2013-05-01 15:25:00,93.9,31.5,30.00,NNE,28,7.0,11.9,11,0.00,,,-99.99,FreeWX-Wi 1.02,2013-05-01 22:25:00,
2013-05-01 15:30:00,94.3,37.8,30.00,NNE,23,8.0,10.1,14,0.00,,,-99.99,FreeWX-Wi 1.02,2013-05-01 22:30:00,
2013-05-01 15:35:00,95.7,38.8,30.00,NNE,29,7.0,11.0,14,0.00,,,-99.99,FreeWX-Wi 1.02,2013-05-01 22:35:00,
2013-05-01 15:40:00,95.0,38.3,30.00,NNE,31,7.0,12.8,14,0.00,,,-99.99,FreeWX-Wi 1.02,2013-05-01 22:40:00,
2013-05-01 15:45:00,94.5,37.9,30.00,NNE,28,8.0,14.1,14,0.00,,,-99.99,FreeWX-Wi 1.02,2013-05-01 22:45:00,
2013-05-01 15:50:00,94.8,38.1,30.00,NNE,30,7.0,11.0,14,0.00,,,-99.99,FreeWX-Wi 1.02,2013-05-01 22:50:00,
2013-05-01 15:55:00,94.8,38.1,30.00,NE,35,7.0,11.0,14,0.00,,,-99.99,FreeWX-Wi 1.02,2013-05-01 22:55:00,
2013-05-01 16:00:00,94.1,37.6,30.00,NNE,29,7.0,11.0,14,0.00,,,-99.99,FreeWX-Wi 1.02,2013-05-01 23:00:00,
2013-05-01 16:05:00,95.2,38.5,30.00,NNE,24,8.0,15.9,14,0.00,,,-99.99,FreeWX-Wi 1.02,2013-05-01 23:05:00,
2013-05-01 16:10:00,95.0,38.3,30.00,NNE,26,8.0,17.4,14,0.00,,,-99.99,FreeWX-Wi 1.02,2013-05-01 23:10:00,
2013-05-01 16:15:00,94.8,38.1,30.00,NNE,27,8.0,12.8,14,0.00,,,-99.99,FreeWX-Wi 1.02,2013-05-01 23:15:00,
2013-05-01 16:20:00,94.3,37.8,30.00,NNE,26,8.0,11.0,14,0.00,,,-99.99,FreeWX-Wi 1.02,2013-05-01 23:20:00,
2013-05-01 16:25:00,94.3,37.8,30.00,NNE,27,8.0,11.4,14,0.00,,,-99.99,FreeWX-Wi 1.02,2013-05-01 23:25:00,
2013-05-01 16:30:00,93.9,37.4,30.00,NNE,31,8.0,12.8,14,0.00,,,-99.99,FreeWX-Wi 1.02,2013-05-01 23:30:00,
2013-05-01 16:35:00,93.6,37.2,30.00,NNE,27,8.0,11.0,14,0.00,,,-99.99,FreeWX-Wi 1.02,2013-05-01 23:35:00,
2013-05-01 16:40:00,93.4,37.0,30.00,NNE,24,8.0,14.1,14,0.00,,,-99.99,FreeWX-Wi 1.02,2013-05-01 23:40:00,
2013-05-01 16:45:00,94.3,37.8,30.00,NNE,26,7.0,12.8,14,0.00,,,-99.99,FreeWX-Wi 1.02,2013-05-01 23:45:00,
2013-05-01 16:50:00,95.0,38.3,30.00,NNE,32,7.0,11.0,14,0.00,,,-99.99,FreeWX-Wi 1.02,2013-05-01 23:50:00,
2013-05-01 16:55:00,94.5,37.9,30.00,NE,35,8.0,13.2,14,0.00,,,-99.99,FreeWX-Wi 1.02,2013-05-01 23:55:00,
2013-05-01 17:00:00,93.9,37.4,30.00,NE,35,7.0,9.2,14,0.00,,,-99.99,FreeWX-Wi 1.02,2013-05-02 00:00:00,
2013-05-01 17:05:00,92.8,32.7,30.00,NE,38,8.0,13.6,12,0.00,,,-99.99,FreeWX-Wi 1.02,2013-05-02 00:05:00,
2013-05-01 17:10:00,93.7,37.2,30.00,NE,43,8.0,16.3,14,0.00,,,-99.99,FreeWX-Wi 1.02,2013-05-02 00:10:00,
2013-05-01 17:15:00,94.5,37.9,30.00,NE,43,8.0,13.2,14,0.00,,,-99.99,FreeWX-Wi 1.02,2013-05-02 00:15:00,
2013-05-01 17:20:00,92.3,32.4,30.00,NE,37,8.0,15.4,12,0.00,,,-99.99,FreeWX-Wi 1.02,2013-05-02 00:20:00,
2013-05-01 17:25:00,91.4,31.6,30.00,NE,34,9.0,15.0,12,0.00,,,-99.99,FreeWX-Wi 1.02,2013-05-02 00:25:00,
2013-05-01 17:30:00,91.2,31.5,30.00,NNE,32,10.0,15.9,12,0.00,,,-99.99,FreeWX-Wi 1.02,2013-05-02 00:30:00,
2013-05-01 17:35:00,91.6,31.8,30.00,NE,34,9.0,11.0,12,0.00,,,-99.99,FreeWX-Wi 1.02,2013-05-02 00:35:00,
2013-05-01 17:40:00,90.7,31.1,30.00,NNE,27,9.0,13.2,12,0.00,,,-99.99,FreeWX-Wi 1.02,2013-05-02 00:40:00,
2013-05-01 17:45:00,90.7,31.1,30.00,NNE,25,9.0,15.4,12,0.00,,,-99.99,FreeWX-Wi 1.02,2013-05-02 00:45:00,
2013-05-01 17:50:00,90.9,31.3,30.00,NNE,27,9.0,15.4,12,0.00,,,-99.99,FreeWX-Wi 1.02,2013-05-02 00:50:00,
2013-05-01 17:55:00,90.7,31.1,30.00,NNE,31,9.0,14.1,12,0.00,,,-99.99,FreeWX-Wi 1.02,2013-05-02 00:55:00,
2013-05-01 18:00:00,90.5,30.9,30.00,NE,37,8.0,12.8,12,0.00,,,-99.99,FreeWX-Wi 1.02,2013-05-02 01:00:00,
2013-05-01 18:05:00,90.1,30.7,30.00,NE,40,8.0,10.1,12,0.00,,,-99.99,FreeWX-Wi 1.02,2013-05-02 01:05:00,
2013-05-01 18:10:00,89.2,32.0,30.00,NE,41,8.0,11.4,13,0.00,,,-99.99,FreeWX-Wi 1.02,2013-05-02 01:10:00,
2013-05-01 18:15:00,88.9,31.6,30.00,NE,39,8.0,12.8,13,0.00,,,-99.99,FreeWX-Wi 1.02,2013-05-02 01:15:00,
2013-05-01 18:20:00,88.7,31.5,30.00,NE,37,7.0,10.5,13,0.00,,,-99.99,FreeWX-Wi 1.02,2013-05-02 01:20:00,
2013-05-01 18:25:00,88.2,31.1,30.00,NE,34,7.0,14.5,13,0.00,,,-99.99,FreeWX-Wi 1.02,2013-05-02 01:25:00,
2013-05-01 18:30:00,88.0,30.9,30.00,NE,35,7.0,11.0,13,0.00,,,-99.99,FreeWX-Wi 1.02,2013-05-02 01:30:00,
2013-05-01 18:35:00,88.0,30.9,30.00,NNE,33,7.0,11.0,13,0.00,,,-99.99,FreeWX-Wi 1.02,2013-05-02 01:35:00,
2013-05-01 18:40:00,87.6,30.7,30.00,NE,35,7.0,8.3,13,0.00,,,-99.99,FreeWX-Wi 1.02,2013-05-02 01:40:00,
2013-05-01 18:45:00,87.4,30.6,30.00,NE,36,7.0,8.7,13,0.00,,,-99.99,FreeWX-Wi 1.02,2013-05-02 01:45:00,
2013-05-01 18:50:00,87.3,30.4,30.00,NE,37,6.0,11.0,13,0.00,,,-99.99,FreeWX-Wi 1.02,2013-05-02 01:50:00,
2013-05-01 18:55:00,86.9,30.2,30.00,NE,38,6.0,10.1,13,0.00,,,-99.99,FreeWX-Wi 1.02,2013-05-02 01:55:00,
2013-05-01 19:00:00,86.7,30.0,30.00,NNE,33,6.0,11.4,13,0.00,,,-99.99,FreeWX-Wi 1.02,2013-05-02 02:00:00,
2013-05-01 19:05:00,86.2,29.5,30.00,NNE,27,6.0,8.7,13,0.00,,,-99.99,FreeWX-Wi 1.02,2013-05-02 02:05:00,
2013-05-01 19:10:00,85.8,29.3,30.00,NNE,26,6.0,11.0,13,0.00,,,-99.99,FreeWX-Wi 1.02,2013-05-02 02:10:00,
2013-05-01 19:15:00,85.8,29.3,30.00,NNE,25,6.0,10.1,13,0.00,,,-99.99,FreeWX-Wi 1.02,2013-05-02 02:15:00,
2013-05-01 19:20:00,85.6,29.1,30.03,NNE,19,6.0,11.0,13,0.00,,,-99.99,FreeWX-Wi 1.02,2013-05-02 02:20:00,
2013-05-01 19:25:00,85.5,28.9,30.03,NNE,15,6.0,8.7,13,0.00,,,-99.99,FreeWX-Wi 1.02,2013-05-02 02:25:00,
2013-05-01 19:30:00,84.9,28.6,30.03,NNE,15,6.0,8.3,13,0.00,,,-99.99,FreeWX-Wi 1.02,2013-05-02 02:30:00,
2013-05-01 19:35:00,84.2,28.0,30.03,NNE,16,6.0,8.3,13,0.00,,,-99.99,FreeWX-Wi 1.02,2013-05-02 02:35:00,
2013-05-01 19:40:00,84.0,29.7,30.03,NNE,15,6.0,7.6,14,0.00,,,-99.99,FreeWX-Wi 1.02,2013-05-02 02:40:00,
2013-05-01 19:45:00,83.3,29.1,30.03,NNE,16,5.0,8.1,14,0.00,,,-99.99,FreeWX-Wi 1.02,2013-05-02 02:45:00,
2013-05-01 19:50:00,83.1,28.9,30.03,NNE,21,5.0,8.1,14,0.00,,,-99.99,FreeWX-Wi 1.02,2013-05-02 02:50:00,
2013-05-01 19:55:00,81.9,28.0,30.03,NNE,24,4.0,4.9,14,0.00,,,-99.99,FreeWX-Wi 1.02,2013-05-02 02:55:00,
2013-05-01 20:00:00,81.0,27.3,30.03,NNE,25,4.0,4.0,14,0.00,,,-99.99,FreeWX-Wi 1.02,2013-05-02 03:00:00,
2013-05-01 20:05:00,80.8,27.1,30.03,NNE,26,4.0,4.0,14,0.00,,,-99.99,FreeWX-Wi 1.02,2013-05-02 03:05:00,
2013-05-01 20:10:00,80.6,27.0,30.03,NNE,28,3.0,5.4,14,0.00,,,-99.99,FreeWX-Wi 1.02,2013-05-02 03:10:00,
2013-05-01 20:15:00,80.1,28.2,30.03,NNE,27,3.0,8.1,15,0.00,,,-99.99,FreeWX-Wi 1.02,2013-05-02 03:15:00,
2013-05-01 20:20:00,80.6,27.0,30.03,NNE,27,3.0,6.3,14,0.00,,,-99.99,FreeWX-Wi 1.02,2013-05-02 03:20:00,
2013-05-01 20:25:00,80.8,27.1,30.03,NNE,25,4.0,8.7,14,0.00,,,-99.99,FreeWX-Wi 1.02,2013-05-02 03:25:00,
2013-05-01 20:30:00,81.1,27.5,30.03,NNE,24,4.0,6.3,14,0.00,,,-99.99,FreeWX-Wi 1.02,2013-05-02 03:30:00,
2013-05-01 20:35:00,80.2,28.4,30.03,NNE,22,4.0,5.8,15,0.00,,,-99.99,FreeWX-Wi 1.02,2013-05-02 03:35:00,
2013-05-01 20:40:00,79.9,28.0,30.03,NNE,21,4.0,5.8,15,0.00,,,-99.99,FreeWX-Wi 1.02,2013-05-02 03:40:00,
2013-05-01 20:45:00,80.2,28.4,30.03,NNE,17,4.0,6.3,15,0.00,,,-99.99,FreeWX-Wi 1.02,2013-05-02 03:45:00,
2013-05-01 20:50:00,80.2,28.4,30.06,NNE,13,4.0,6.3,15,0.00,,,-99.99,FreeWX-Wi 1.02,2013-05-02 03:50:00,
2013-05-01 20:55:00,80.6,27.0,30.06,NNE,13,4.0,8.7,14,0.00,,,-99.99,FreeWX-Wi 1.02,2013-05-02 03:55:00,
2013-05-01 21:00:00,81.5,27.7,30.06,North,11,5.0,11.0,14,0.00,,,-99.99,FreeWX-Wi 1.02,2013-05-02 04:00:00,
2013-05-01 21:05:00,81.3,27.5,30.06,NNE,12,6.0,10.5,14,0.00,,,-99.99,FreeWX-Wi 1.02,2013-05-02 04:05:00,
2013-05-01 21:10:00,80.6,27.0,30.06,NNE,14,6.0,8.3,14,0.00,,,-99.99,FreeWX-Wi 1.02,2013-05-02 04:10:00,
2013-05-01 21:15:00,79.3,27.7,30.06,NNE,17,6.0,8.3,15,0.00,,,-99.99,FreeWX-Wi 1.02,2013-05-02 04:15:00,
2013-05-01 21:20:00,79.3,27.7,30.06,NNE,18,6.0,8.3,15,0.00,,,-99.99,FreeWX-Wi 1.02,2013-05-02 04:20:00,
2013-05-01 21:25:00,79.0,27.3,30.06,NNE,21,6.0,8.7,15,0.00,,,-99.99,FreeWX-Wi 1.02,2013-05-02 04:25:00,
2013-05-01 21:30:00,78.6,27.1,30.06,NNE,23,6.0,8.3,15,0.00,,,-99.99,FreeWX-Wi 1.02,2013-05-02 04:30:00,
2013-05-01 21:35:00,78.1,26.6,30.06,NNE,24,6.0,8.7,15,0.00,,,-99.99,FreeWX-Wi 1.02,2013-05-02 04:35:00,
2013-05-01 21:40:00,78.1,26.6,30.06,NNE,25,6.0,8.3,15,0.00,,,-99.99,FreeWX-Wi 1.02,2013-05-02 04:40:00,
2013-05-01 21:45:00,78.3,26.8,30.06,NNE,24,6.0,8.7,15,0.00,,,-99.99,FreeWX-Wi 1.02,2013-05-02 04:45:00,
2013-05-01 21:50:00,78.4,27.0,30.06,NNE,25,6.0,8.3,15,0.00,,,-99.99,FreeWX-Wi 1.02,2013-05-02 04:50:00,
2013-05-01 21:55:00,78.1,26.6,30.06,NNE,25,6.0,8.3,15,0.00,,,-99.99,FreeWX-Wi 1.02,2013-05-02 04:55:00,
2013-05-01 22:00:00,78.4,27.0,30.06,NNE,24,6.0,10.5,15,0.00,,,-99.99,FreeWX-Wi 1.02,2013-05-02 05:00:00,
2013-05-01 22:05:00,78.8,27.3,30.06,NNE,23,6.0,9.2,15,0.00,,,-99.99,FreeWX-Wi 1.02,2013-05-02 05:05:00,
2013-05-01 22:10:00,79.2,27.5,30.06,NNE,23,7.0,11.9,15,0.00,,,-99.99,FreeWX-Wi 1.02,2013-05-02 05:10:00,
2013-05-01 22:15:00,78.6,27.1,30.06,NNE,23,7.0,10.5,15,0.00,,,-99.99,FreeWX-Wi 1.02,2013-05-02 05:15:00,
2013-05-01 22:20:00,78.8,27.3,30.06,NNE,23,7.0,10.1,15,0.00,,,-99.99,FreeWX-Wi 1.02,2013-05-02 05:20:00,
2013-05-01 22:25:00,78.6,27.1,30.06,NNE,22,7.0,10.5,15,0.00,,,-99.99,FreeWX-Wi 1.02,2013-05-02 05:25:00,
2013-05-01 22:30:00,78.4,27.0,30.06,NNE,22,7.0,13.6,15,0.00,,,-99.99,FreeWX-Wi 1.02,2013-05-02 05:30:00,
2013-05-01 22:35:00,78.3,26.8,30.06,NNE,22,8.0,12.3,15,0.00,,,-99.99,FreeWX-Wi 1.02,2013-05-02 05:35:00,
2013-05-01 22:40:00,78.1,26.6,30.06,NNE,22,8.0,11.0,15,0.00,,,-99.99,FreeWX-Wi 1.02,2013-05-02 05:40:00,
2013-05-01 22:45:00,78.8,27.3,30.06,NNE,20,8.0,10.5,15,0.00,,,-99.99,FreeWX-Wi 1.02,2013-05-02 05:45:00,
2013-05-01 22:50:00,78.6,27.1,30.09,NNE,20,8.0,8.1,15,0.00,,,-99.99,FreeWX-Wi 1.02,2013-05-02 05:50:00,
2013-05-01 22:55:00,78.4,27.0,30.09,NNE,17,7.0,7.0,15,0.00,,,-99.99,FreeWX-Wi 1.02,2013-05-02 05:55:00,
2013-05-01 23:00:00,78.1,26.6,30.09,NNE,16,7.0,7.0,15,0.00,,,-99.99,FreeWX-Wi 1.02,2013-05-02 06:00:00,
2013-05-01 23:05:00,76.8,25.7,30.09,NNE,14,6.0,6.3,15,0.00,,,-99.99,FreeWX-Wi 1.02,2013-05-02 06:05:00,
2013-05-01 23:10:00,75.7,24.8,30.09,NNE,15,5.0,6.3,15,0.00,,,-99.99,FreeWX-Wi 1.02,2013-05-02 06:10:00,
2013-05-01 23:15:00,74.7,25.5,30.09,NNE,16,4.0,4.9,16,0.00,,,-99.99,FreeWX-Wi 1.02,2013-05-02 06:15:00,
2013-05-01 23:20:00,73.9,25.0,30.09,NNE,17,4.0,4.0,16,0.00,,,-99.99,FreeWX-Wi 1.02,2013-05-02 06:20:00,
2013-05-01 23:25:00,73.2,24.3,30.09,NNE,19,3.0,3.6,16,0.00,,,-99.99,FreeWX-Wi 1.02,2013-05-02 06:25:00,
2013-05-01 23:30:00,72.7,23.9,30.09,NNE,20,3.0,4.0,16,0.00,,,-99.99,FreeWX-Wi 1.02,2013-05-02 06:30:00,
2013-05-01 23:35:00,72.3,23.5,30.09,NNE,21,2.0,5.8,16,0.00,,,-99.99,FreeWX-Wi 1.02,2013-05-02 06:35:00,
2013-05-01 23:40:00,72.3,23.5,30.09,NNE,20,2.0,3.6,16,0.00,,,-99.99,FreeWX-Wi 1.02,2013-05-02 06:40:00,
2013-05-01 23:45:00,72.0,23.4,30.09,NNE,21,2.0,5.8,16,0.00,,,-99.99,FreeWX-Wi 1.02,2013-05-02 06:45:00,
2013-05-01 23:50:00,71.4,24.3,30.09,NNE,22,2.0,4.0,17,0.00,,,-99.99,FreeWX-Wi 1.02,2013-05-02 06:50:00,
2013-05-01 23:55:00,72.3,23.5,30.09,NNE,22,3.0,5.4,16,0.00,,,-99.99,FreeWX-Wi 1.02,2013-05-02 06:55:00,